| time (UTC) | temp C | wind direction | speed KPH | gust KPH | rain 1hr cm | rain 24hr cm | rain mn cm | humidity % | barometer mb |
| 20260509201513 | 30 | 71 | 4.8 | 11.3 | 0.00 | 0.00 | 0.00 | 45 | 1009.5 |
| 20260509201008 | 30 | 339 | 0.0 | 11.3 | 0.00 | 0.00 | 0.00 | 45 | 1009.6 |
| 20260509200512 | 31 | 277 | 1.6 | 11.3 | 0.00 | 0.00 | 0.00 | 44 | 1009.6 |
| 20260509200006 | 31 | 146 | 1.6 | 9.7 | 0.00 | 0.00 | 0.00 | 41 | 1009.6 |
| 20260509195506 | 31 | 36 | 3.2 | 9.7 | 0.00 | 0.00 | 0.00 | 45 | 1009.6 |
| 20260509195015 | 31 | 29 | 3.2 | 12.9 | 0.00 | 0.00 | 0.00 | 49 | 1009.7 |
| 20260509194508 | 30 | 269 | 1.6 | 12.9 | 0.00 | 0.00 | 0.00 | 43 | 1009.7 |
| 20260509194007 | 32 | 344 | 3.2 | 8.0 | 0.00 | 0.00 | 0.00 | 46 | 1009.9 |
| 20260509193509 | 30 | 20 | 3.2 | 8.0 | 0.00 | 0.00 | 0.00 | 52 | 1010.0 |
| 20260509193017 | 30 | 187 | 0.0 | 12.9 | 0.00 | 0.00 | 0.00 | 48 | 1010.1 |
| 20260509192503 | 31 | 23 | 3.2 | 12.9 | 0.00 | 0.00 | 0.00 | 46 | 1010.1 |
| 20260509192003 | 31 | 49 | 3.2 | 14.5 | 0.00 | 0.00 | 0.00 | 45 | 1010.0 |
| 20260509191508 | 31 | 18 | 4.8 | 14.5 | 0.00 | 0.00 | 0.00 | 49 | 1010.1 |
| 20260509191009 | 30 | 76 | 6.4 | 12.9 | 0.00 | 0.00 | 0.00 | 48 | 1010.1 |
| 20260509190511 | 29 | 108 | 1.6 | 4.8 | 0.00 | 0.00 | 0.00 | 56 | 1010.1 |
| 20260509190017 | 30 | 24 | 1.6 | 9.7 | 0.00 | 0.00 | 0.00 | 49 | 1010.2 |
| 20260509185510 | 31 | 55 | 3.2 | 14.5 | 0.00 | 0.00 | 0.00 | 50 | 1010.3 |
| 20260509185003 | 31 | 17 | 6.4 | 14.5 | 0.00 | 0.00 | 0.00 | 50 | 1010.3 |
| 20260509184521 | 30 | 15 | 3.2 | 8.0 | 0.00 | 0.00 | 0.00 | 54 | 1010.3 |
| 20260509184006 | 28 | 167 | 3.2 | 8.0 | 0.00 | 0.00 | 0.00 | 54 | 1010.4 |
| 20260509183511 | 29 | 342 | 1.6 | 16.1 | 0.00 | 0.00 | 0.00 | 53 | 1010.5 |
| 20260509183014 | 30 | 352 | 6.4 | 16.1 | 0.00 | 0.00 | 0.00 | 53 | 1010.6 |
| 20260509182507 | 30 | 42 | 1.6 | 8.0 | 0.00 | 0.00 | 0.00 | 49 | 1010.6 |
| 20260509182010 | 30 | 9 | 1.6 | 8.0 | 0.00 | 0.00 | 0.00 | 52 | 1010.7 |
| 20260509181508 | 30 | 22 | 4.8 | 12.9 | 0.00 | 0.00 | 0.00 | 52 | 1010.7 |
| 20260509181003 | 30 | 25 | 3.2 | 12.9 | 0.00 | 0.00 | 0.00 | 56 | 1010.7 |
| 20260509180505 | 29 | 26 | 6.4 | 12.9 | 0.00 | 0.00 | 0.00 | 53 | 1010.7 |
| 20260509180017 | 30 | 323 | 1.6 | 11.3 | 0.00 | 0.00 | 0.00 | 51 | 1010.7 |
| 20260509175512 | 29 | 29 | 6.4 | 12.9 | 0.00 | 0.00 | 0.00 | 53 | 1010.8 |
| 20260509175006 | 28 | 288 | 0.0 | 14.5 | 0.00 | 0.00 | 0.00 | 51 | 1010.8 |
| 20260509174518 | 29 | 352 | 4.8 | 14.5 | 0.00 | 0.00 | 0.00 | 53 | 1010.8 |
| 20260509174004 | 29 | 352 | 6.4 | 14.5 | 0.00 | 0.00 | 0.00 | 57 | 1010.9 |
| 20260509173511 | 28 | 307 | 6.4 | 14.5 | 0.00 | 0.00 | 0.00 | 59 | 1010.9 |
| 20260509173026 | 30 | 11 | 4.8 | 14.5 | 0.00 | 0.00 | 0.00 | 54 | 1010.9 |
| 20260509172511 | 28 | 352 | 4.8 | 14.5 | 0.00 | 0.00 | 0.00 | 58 | 1011.0 |
| 20260509172006 | 28 | 315 | 11.3 | 14.5 | 0.00 | 0.00 | 0.00 | 54 | 1011.0 |
| 20260509171525 | 28 | 304 | 4.8 | 14.5 | 0.00 | 0.00 | 0.00 | 55 | 1011.0 |
| 20260509171014 | 28 | 324 | 4.8 | 14.5 | 0.00 | 0.00 | 0.00 | 60 | 1011.1 |
| 20260509170504 | 27 | 307 | 8.0 | 14.5 | 0.00 | 0.00 | 0.00 | 61 | 1011.1 |
| 20260509170009 | 27 | 290 | 8.0 | 14.5 | 0.00 | 0.00 | 0.00 | 60 | 1011.1 |
| 20260509165503 | 27 | 283 | 6.4 | 16.1 | 0.00 | 0.00 | 0.00 | 59 | 1011.2 |
| 20260509165003 | 27 | 324 | 9.7 | 17.7 | 0.00 | 0.00 | 0.00 | 60 | 1011.3 |
| 20260509164511 | 27 | 326 | 12.9 | 17.7 | 0.00 | 0.00 | 0.00 | 59 | 1011.4 |
| 20260509164009 | 27 | 317 | 9.7 | 19.3 | 0.00 | 0.00 | 0.00 | 61 | 1011.4 |
| 20260509163505 | 27 | 324 | 12.9 | 19.3 | 0.00 | 0.00 | 0.00 | 57 | 1011.5 |
| 20260509163025 | 27 | 296 | 9.7 | 17.7 | 0.00 | 0.00 | 0.00 | 60 | 1011.5 |
| 20260509162506 | 27 | 325 | 9.7 | 17.7 | 0.00 | 0.00 | 0.00 | 60 | 1011.5 |
| 20260509162012 | 27 | 317 | 8.0 | 17.7 | 0.00 | 0.00 | 0.00 | 62 | 1011.5 |
| 20260509161530 | 27 | 320 | 9.7 | 19.3 | 0.00 | 0.00 | 0.00 | 60 | 1011.4 |
| 20260509161009 | 26 | 329 | 12.9 | 19.3 | 0.00 | 0.00 | 0.00 | 61 | 1011.4 |
| 20260509160510 | 26 | 339 | 14.5 | 22.5 | 0.00 | 0.00 | 0.00 | 60 | 1011.4 |
| 20260509160024 | 26 | 360 | 14.5 | 22.5 | 0.00 | 0.00 | 0.00 | 61 | 1011.3 |
| 20260509155507 | 26 | 328 | 12.9 | 20.9 | 0.00 | 0.00 | 0.00 | 64 | 1011.2 |
| 20260509155008 | 25 | 333 | 14.5 | 22.5 | 0.00 | 0.00 | 0.00 | 61 | 1011.3 |
| 20260509154510 | 26 | 11 | 14.5 | 22.5 | 0.00 | 0.00 | 0.00 | 60 | 1011.2 |
| 20260509154006 | 25 | 342 | 16.1 | 20.9 | 0.00 | 0.00 | 0.00 | 60 | 1011.3 |
| 20260509153506 | 26 | 329 | 14.5 | 24.1 | 0.00 | 0.00 | 0.00 | 63 | 1011.2 |
| 20260509153024 | 26 | 319 | 11.3 | 24.1 | 0.00 | 0.00 | 0.00 | 61 | 1011.2 |
| 20260509152507 | 26 | 321 | 12.9 | 19.3 | 0.00 | 0.00 | 0.00 | 62 | 1011.3 |
| 20260509152011 | 25 | 329 | 9.7 | 19.3 | 0.00 | 0.00 | 0.00 | 67 | 1011.3 |
| 20260509151515 | 25 | 294 | 11.3 | 20.9 | 0.00 | 0.00 | 0.00 | 66 | 1011.3 |
| 20260509151006 | 24 | 322 | 14.5 | 20.9 | 0.00 | 0.00 | 0.00 | 66 | 1011.3 |
| 20260509150512 | 24 | 335 | 14.5 | 20.9 | 0.00 | 0.00 | 0.00 | 67 | 1011.3 |
| 20260509150028 | 24 | 304 | 14.5 | 20.9 | 0.00 | 0.00 | 0.00 | 68 | 1011.3 |
| 20260509145509 | 24 | 293 | 12.9 | 20.9 | 0.00 | 0.00 | 0.00 | 70 | 1011.4 |
| 20260509145018 | 24 | 329 | 12.9 | 19.3 | 0.00 | 0.00 | 0.00 | 69 | 1011.5 |
| 20260509144525 | 23 | 313 | 8.0 | 16.1 | 0.00 | 0.00 | 0.00 | 76 | 1011.5 |
| 20260509144004 | 23 | 313 | 9.7 | 16.1 | 0.00 | 0.00 | 0.00 | 74 | 1011.5 |
| 20260509143510 | 23 | 290 | 9.7 | 16.1 | 0.00 | 0.00 | 0.00 | 77 | 1011.6 |
| 20260509143014 | 23 | 288 | 6.4 | 12.9 | 0.00 | 0.00 | 0.00 | 79 | 1011.5 |
| 20260509142507 | 22 | 296 | 8.0 | 12.9 | 0.00 | 0.00 | 0.00 | 82 | 1011.6 |
| 20260509142011 | 22 | 278 | 6.4 | 12.9 | 0.00 | 0.00 | 0.00 | 83 | 1011.5 |
| 20260509141526 | 22 | 296 | 8.0 | 12.9 | 0.00 | 0.00 | 0.00 | 82 | 1011.6 |
| 20260509141011 | 22 | 291 | 4.8 | 12.9 | 0.00 | 0.00 | 0.00 | 82 | 1011.6 |
| 20260509140505 | 22 | 291 | 6.4 | 14.5 | 0.00 | 0.00 | 0.00 | 82 | 1011.6 |
| 20260509140021 | 22 | 273 | 6.4 | 14.5 | 0.00 | 0.00 | 0.00 | 83 | 1011.6 |
| 20260509135504 | 21 | 293 | 6.4 | 12.9 | 0.00 | 0.00 | 0.00 | 85 | 1011.6 |
| 20260509135003 | 21 | 290 | 11.3 | 12.9 | 0.00 | 0.00 | 0.00 | 84 | 1011.6 |
| 20260509134510 | 21 | 305 | 8.0 | 14.5 | 0.00 | 0.00 | 0.00 | 85 | 1011.5 |
| 20260509134006 | 21 | 338 | 8.0 | 14.5 | 0.00 | 0.00 | 0.00 | 85 | 1011.4 |
| 20260509133503 | 21 | 309 | 9.7 | 14.5 | 0.00 | 0.00 | 0.00 | 85 | 1011.4 |
| 20260509133010 | 21 | 360 | 8.0 | 16.1 | 0.00 | 0.00 | 0.00 | 85 | 1011.4 |
| 20260509132507 | 21 | 330 | 8.0 | 16.1 | 0.00 | 0.00 | 0.00 | 86 | 1011.4 |
| 20260509132011 | 21 | 329 | 9.7 | 14.5 | 0.00 | 0.00 | 0.00 | 86 | 1011.4 |
| 20260509131511 | 21 | 313 | 8.0 | 14.5 | 0.00 | 0.00 | 0.00 | 87 | 1011.4 |
| 20260509131010 | 20 | 324 | 8.0 | 12.9 | 0.00 | 0.00 | 0.00 | 88 | 1011.4 |
| 20260509130516 | 20 | 315 | 4.8 | 12.9 | 0.00 | 0.00 | 0.00 | 89 | 1011.3 |
| 20260509130008 | 20 | 308 | 6.4 | 12.9 | 0.00 | 0.03 | 0.00 | 89 | 1011.3 |
| 20260509125514 | 19 | 302 | 6.4 | 11.3 | 0.00 | 0.05 | 0.00 | 90 | 1011.3 |
| 20260509125009 | 19 | 296 | 4.8 | 9.7 | 0.00 | 0.05 | 0.00 | 91 | 1011.3 |
| 20260509124505 | 18 | 272 | 6.4 | 9.7 | 0.00 | 0.05 | 0.00 | 91 | 1011.3 |
| 20260509124004 | 18 | 273 | 4.8 | 9.7 | 0.00 | 0.05 | 0.00 | 91 | 1011.3 |
| 20260509123503 | 18 | 279 | 4.8 | 6.4 | 0.00 | 0.05 | 0.00 | 92 | 1011.2 |
| 20260509123010 | 18 | 284 | 3.2 | 4.8 | 0.00 | 0.05 | 0.00 | 92 | 1011.2 |
| 20260509122507 | 18 | 284 | 3.2 | 6.4 | 0.00 | 0.05 | 0.00 | 92 | 1011.1 |
| 20260509122017 | 18 | 283 | 3.2 | 8.0 | 0.00 | 0.05 | 0.00 | 92 | 1011.0 |
| 20260509121521 | 18 | 288 | 4.8 | 8.0 | 0.00 | 0.05 | 0.00 | 92 | 1011.0 |
| 20260509121006 | 18 | 296 | 3.2 | 6.4 | 0.00 | 0.05 | 0.00 | 92 | 1010.9 |
| 20260509120506 | 18 | 298 | 4.8 | 9.7 | 0.00 | 0.05 | 0.00 | 92 | 1010.9 |
| 20260509120018 | 18 | 319 | 3.2 | 9.7 | 0.00 | 0.05 | 0.00 | 92 | 1010.8 |
| 20260509115508 | 18 | 321 | 6.4 | 9.7 | 0.00 | 0.08 | 0.00 | 91 | 1010.8 |
| 20260509115007 | 18 | 319 | 4.8 | 9.7 | 0.00 | 0.08 | 0.00 | 91 | 1010.7 |
| 20260509114536 | 18 | 315 | 6.4 | 11.3 | 0.00 | 0.08 | 0.00 | 91 | 1010.5 |
| 20260509114009 | 18 | 331 | 6.4 | 11.3 | 0.00 | 0.08 | 0.00 | 91 | 1010.5 |
| 20260509113513 | 18 | 314 | 8.0 | 11.3 | 0.00 | 0.08 | 0.00 | 91 | 1010.3 |
| 20260509113010 | 18 | 302 | 6.4 | 8.0 | 0.00 | 0.08 | 0.00 | 90 | 1010.3 |
| 20260509112505 | 18 | 327 | 6.4 | 8.0 | 0.00 | 0.08 | 0.00 | 90 | 1010.1 |
| 20260509112009 | 18 | 317 | 6.4 | 9.7 | 0.00 | 0.08 | 0.00 | 90 | 1010.1 |
| 20260509111513 | 18 | 319 | 6.4 | 16.1 | 0.00 | 0.08 | 0.00 | 90 | 1010.0 |
| 20260509111007 | 18 | 338 | 8.0 | 16.1 | 0.00 | 0.08 | 0.00 | 90 | 1010.0 |
| 20260509110514 | 18 | 302 | 9.7 | 17.7 | 0.00 | 0.08 | 0.00 | 90 | 1010.0 |
| 20260509110022 | 18 | 308 | 11.3 | 17.7 | 0.00 | 0.08 | 0.00 | 90 | 1010.1 |
| 20260509105506 | 18 | 302 | 11.3 | 16.1 | 0.00 | 0.08 | 0.00 | 89 | 1009.8 |
| 20260509105008 | 18 | 290 | 11.3 | 17.7 | 0.00 | 0.08 | 0.00 | 89 | 1009.8 |
| 20260509104523 | 18 | 277 | 9.7 | 16.1 | 0.00 | 0.08 | 0.00 | 88 | 1010.1 |
| 20260509104006 | 18 | 275 | 6.4 | 16.1 | 0.00 | 0.08 | 0.00 | 88 | 1009.8 |
| 20260509103506 | 18 | 282 | 9.7 | 16.1 | 0.00 | 0.08 | 0.00 | 88 | 1009.9 |
| 20260509103021 | 19 | 289 | 8.0 | 14.5 | 0.00 | 0.08 | 0.00 | 88 | 1009.8 |
| 20260509102509 | 19 | 286 | 6.4 | 16.1 | 0.00 | 0.08 | 0.00 | 87 | 1009.8 |
| 20260509102007 | 19 | 260 | 9.7 | 12.9 | 0.00 | 0.08 | 0.00 | 87 | 1009.9 |
| 20260509101512 | 18 | 266 | 6.4 | 8.0 | 0.00 | 0.08 | 0.00 | 88 | 1009.8 |
| 20260509101006 | 18 | 254 | 3.2 | 6.4 | 0.00 | 0.10 | 0.00 | 87 | 1009.7 |
| 20260509100506 | 18 | 238 | 3.2 | 3.2 | 0.00 | 0.13 | 0.00 | 86 | 1009.6 |
| 20260509100014 | 18 | 218 | 1.6 | 3.2 | 0.00 | 0.13 | 0.00 | 86 | 1009.5 |
| 20260509095510 | 19 | 213 | 1.6 | 3.2 | 0.00 | 0.13 | 0.00 | 85 | 1009.5 |
| 20260509095010 | 19 | 313 | 0.0 | 4.8 | 0.00 | 0.13 | 0.00 | 83 | 1009.3 |
| 20260509094509 | 20 | 346 | 1.6 | 4.8 | 0.00 | 0.13 | 0.00 | 82 | 1009.1 |
| 20260509094009 | 20 | 346 | 0.0 | 3.2 | 0.00 | 0.13 | 0.00 | 81 | 1009.0 |
| 20260509093509 | 20 | 346 | 1.6 | 6.4 | 0.00 | 0.13 | 0.00 | 79 | 1008.9 |
| 20260509093024 | 21 | 352 | 1.6 | 6.4 | 0.00 | 0.13 | 0.00 | 79 | 1008.8 |
| 20260509092508 | 21 | 55 | 1.6 | 6.4 | 0.00 | 0.13 | 0.00 | 78 | 1008.7 |
| 20260509092009 | 21 | 336 | 3.2 | 14.5 | 0.00 | 0.13 | 0.00 | 77 | 1008.8 |
| 20260509091526 | 21 | 28 | 3.2 | 14.5 | 0.00 | 0.13 | 0.00 | 76 | 1008.8 |
| 20260509091010 | 21 | 38 | 8.0 | 12.9 | 0.00 | 0.13 | 0.00 | 74 | 1008.8 |
| 20260509090504 | 21 | 360 | 3.2 | 11.3 | 0.00 | 0.13 | 0.00 | 72 | 1008.7 |
| 20260509090041 | 22 | 349 | 3.2 | 12.9 | 0.00 | 0.13 | 0.00 | 70 | 1008.7 |
| 20260509085506 | 22 | 19 | 4.8 | 12.9 | 0.00 | 0.13 | 0.00 | 67 | 1008.5 |
| 20260509085005 | 22 | 27 | 6.4 | 22.5 | 0.00 | 0.13 | 0.00 | 67 | 1008.5 |
| 20260509084523 | 21 | 212 | 12.9 | 22.5 | 0.00 | 0.13 | 0.00 | 72 | 1008.1 |
| 20260509084010 | 21 | 59 | 4.8 | 24.1 | 0.00 | 0.13 | 0.00 | 79 | 1008.4 |
| 20260509083509 | 21 | 146 | 14.5 | 24.1 | 0.00 | 0.13 | 0.00 | 78 | 1007.2 |
| 20260509083039 | 21 | 190 | 4.8 | 9.7 | 0.00 | 0.13 | 0.00 | 71 | 1006.9 |
| 20260509082513 | 21 | 146 | 1.6 | 3.2 | 0.00 | 0.13 | 0.00 | 70 | 1006.5 |
| 20260509082020 | 21 | 157 | 0.0 | 3.2 | 0.00 | 0.13 | 0.00 | 70 | 1006.5 |
| 20260509081525 | 21 | 131 | 1.6 | 3.2 | 0.00 | 0.13 | 0.00 | 69 | 1006.6 |
| 20260509081014 | 21 | 240 | 0.0 | 8.0 | 0.00 | 0.13 | 0.00 | 72 | 1006.7 |
| 20260509080510 | 21 | 242 | 3.2 | 12.9 | 0.00 | 0.13 | 0.00 | 76 | 1006.8 |
| 20260509080030 | 20 | 249 | 4.8 | 12.9 | 0.00 | 0.13 | 0.00 | 79 | 1007.1 |
| 20260509075506 | 21 | 207 | 4.8 | 8.0 | 0.00 | 0.13 | 0.00 | 77 | 1007.2 |
| 20260509075011 | 21 | 196 | 4.8 | 16.1 | 0.00 | 0.13 | 0.00 | 79 | 1007.8 |
| 20260509074528 | 20 | 263 | 8.0 | 16.1 | 0.00 | 0.13 | 0.00 | 83 | 1008.5 |
| 20260509074006 | 20 | 252 | 9.7 | 17.7 | 0.00 | 0.15 | 0.00 | 87 | 1008.9 |
| 20260509073509 | 20 | 242 | 8.0 | 17.7 | 0.00 | 0.15 | 0.00 | 88 | 1009.3 |
| 20260509073024 | 20 | 240 | 8.0 | 17.7 | 0.00 | 0.15 | 0.00 | 89 | 1009.5 |
| 20260509072511 | 20 | 224 | 9.7 | 17.7 | 0.00 | 0.18 | 0.00 | 90 | 1009.7 |
| 20260509072009 | 20 | 221 | 12.9 | 22.5 | 0.00 | 0.20 | 0.00 | 90 | 1010.0 |
| 20260509071526 | 20 | 234 | 9.7 | 25.7 | 0.00 | 0.25 | 0.00 | 91 | 1010.0 |
| 20260509071009 | 20 | 225 | 12.9 | 25.7 | 0.00 | 0.28 | 0.00 | 91 | 1010.2 |
| 20260509070511 | 20 | 229 | 12.9 | 20.9 | 0.00 | 0.28 | 0.00 | 91 | 1010.3 |
| 20260509070032 | 20 | 237 | 12.9 | 19.3 | 0.00 | 0.36 | 0.00 | 91 | 1010.6 |
| 20260509065513 | 20 | 221 | 14.5 | 20.9 | 0.00 | 0.38 | 0.00 | 91 | 1010.6 |
| 20260509065013 | 20 | 226 | 12.9 | 20.9 | 0.00 | 0.38 | 0.00 | 92 | 1011.1 |
| 20260509064518 | 20 | 239 | 11.3 | 17.7 | 0.00 | 0.38 | 0.00 | 92 | 1011.1 |
| 20260509064010 | 20 | 219 | 9.7 | 14.5 | 0.00 | 0.38 | 0.00 | 92 | 1011.3 |
| 20260509063509 | 20 | 233 | 6.4 | 12.9 | 0.00 | 0.38 | 0.00 | 91 | 1011.4 |
| 20260509063020 | 20 | 244 | 4.8 | 14.5 | 0.00 | 0.38 | 0.00 | 92 | 1011.4 |
| 20260509062510 | 19 | 257 | 8.0 | 14.5 | 0.00 | 0.38 | 0.00 | 92 | 1011.5 |
| 20260509062012 | 19 | 236 | 8.0 | 12.9 | 0.00 | 0.38 | 0.00 | 91 | 1011.5 |
| 20260509061525 | 19 | 248 | 6.4 | 11.3 | 0.00 | 0.38 | 0.00 | 91 | 1011.6 |
| 20260509061006 | 19 | 259 | 4.8 | 9.7 | 0.00 | 0.38 | 0.00 | 91 | 1011.7 |
| 20260509060512 | 19 | 267 | 4.8 | 6.4 | 0.00 | 0.38 | 0.00 | 91 | 1011.9 |
| 20260509060028 | 19 | 275 | 4.8 | 6.4 | 0.00 | 0.38 | 0.00 | 91 | 1011.8 |
| 20260509055510 | 19 | 275 | 3.2 | 3.2 | 0.00 | 0.38 | 0.00 | 91 | 1011.6 |
| 20260509055008 | 19 | 265 | 1.6 | 4.8 | 0.00 | 0.38 | 0.00 | 90 | 1011.6 |
| 20260509054527 | 19 | 207 | 0.0 | 6.4 | 0.00 | 0.38 | 0.00 | 90 | 1011.5 |
| 20260509054013 | 19 | 159 | 3.2 | 6.4 | 0.00 | 0.38 | 0.00 | 89 | 1011.1 |
| 20260509053507 | 19 | 236 | 0.0 | 3.2 | 0.00 | 0.38 | 0.00 | 89 | 1011.4 |
| 20260509053029 | 20 | 233 | 1.6 | 4.8 | 0.00 | 0.38 | 0.00 | 87 | 1011.5 |
| 20260509052510 | 20 | 345 | 0.0 | 4.8 | 0.00 | 0.38 | 0.00 | 88 | 1011.6 |
| 20260509052011 | 20 | 332 | 3.2 | 9.7 | 0.00 | 0.38 | 0.00 | 87 | 1011.9 |
| 20260509051520 | 20 | 22 | 1.6 | 9.7 | 0.00 | 0.38 | 0.00 | 87 | 1011.8 |
| 20260509051010 | 21 | 22 | 4.8 | 9.7 | 0.00 | 0.38 | 0.00 | 87 | 1012.1 |
| 20260509050516 | 21 | 360 | 3.2 | 12.9 | 0.00 | 0.38 | 0.00 | 86 | 1012.1 |
| 20260509050020 | 21 | 24 | 3.2 | 12.9 | 0.00 | 0.38 | 0.00 | 86 | 1012.2 |
| 20260509045502 | 21 | 351 | 6.4 | 12.9 | 0.00 | 0.38 | 0.38 | 86 | 1012.2 |
| 20260509045003 | 21 | 347 | 3.2 | 4.8 | 0.00 | 0.38 | 0.38 | 85 | 1011.8 |
| 20260509044511 | 21 | 115 | 1.6 | 4.8 | 0.00 | 0.38 | 0.38 | 85 | 1011.1 |
| 20260509044011 | 21 | 153 | 3.2 | 4.8 | 0.00 | 0.38 | 0.38 | 85 | 1010.9 |
| 20260509043503 | 21 | 168 | 1.6 | 6.4 | 0.00 | 0.38 | 0.38 | 86 | 1010.7 |
| 20260509043021 | 21 | 163 | 1.6 | 6.4 | 0.00 | 0.38 | 0.38 | 85 | 1010.4 |
| 20260509042508 | 21 | 150 | 1.6 | 6.4 | 0.00 | 0.38 | 0.38 | 85 | 1010.4 |
| 20260509042010 | 21 | 136 | 1.6 | 6.4 | 0.00 | 0.38 | 0.38 | 86 | 1010.4 |
| 20260509041509 | 21 | 186 | 1.6 | 6.4 | 0.00 | 0.38 | 0.38 | 86 | 1010.3 |
| 20260509041009 | 21 | 169 | 1.6 | 8.0 | 0.00 | 0.38 | 0.38 | 85 | 1010.2 |
| 20260509040510 | 21 | 160 | 3.2 | 8.0 | 0.00 | 0.38 | 0.38 | 85 | 1010.2 |
| 20260509040005 | 21 | 141 | 3.2 | 4.8 | 0.00 | 0.38 | 0.38 | 84 | 1010.3 |
| 20260509035505 | 21 | 153 | 0.0 | 6.4 | 0.00 | 0.38 | 0.38 | 84 | 1010.4 |
| 20260509035004 | 21 | 158 | 1.6 | 6.4 | 0.00 | 0.38 | 0.38 | 84 | 1010.4 |
| 20260509034511 | 21 | 128 | 3.2 | 6.4 | 0.00 | 0.38 | 0.38 | 84 | 1010.3 |
| 20260509034006 | 21 | 158 | 0.0 | 4.8 | 0.00 | 0.38 | 0.38 | 83 | 1010.5 |
| 20260509033509 | 21 | 155 | 3.2 | 4.8 | 0.00 | 0.38 | 0.38 | 83 | 1010.4 |
| 20260509033020 | 21 | 122 | 0.0 | 8.0 | 0.00 | 0.38 | 0.38 | 83 | 1010.6 |
| 20260509032503 | 21 | 23 | 0.0 | 9.7 | 0.00 | 0.38 | 0.38 | 83 | 1010.7 |
| 20260509032005 | 21 | 58 | 4.8 | 9.7 | 0.00 | 0.38 | 0.38 | 83 | 1010.7 |
| 20260509031527 | 21 | 55 | 3.2 | 6.4 | 0.00 | 0.38 | 0.38 | 83 | 1010.5 |
| 20260509031012 | 21 | 124 | 1.6 | 6.4 | 0.00 | 0.38 | 0.38 | 83 | 1010.3 |
| 20260509030510 | 21 | 134 | 1.6 | 6.4 | 0.00 | 0.38 | 0.38 | 83 | 1010.0 |
| 20260509030021 | 21 | 35 | 0.0 | 12.9 | 0.00 | 0.38 | 0.38 | 83 | 1009.8 |
| 20260509025508 | 21 | 109 | 4.8 | 17.7 | 0.00 | 0.38 | 0.38 | 83 | 1009.3 |
| 20260509025003 | 21 | 154 | 6.4 | 17.7 | 0.00 | 0.38 | 0.38 | 82 | 1009.0 |
| 20260509024507 | 21 | 142 | 6.4 | 17.7 | 0.00 | 0.38 | 0.38 | 82 | 1008.9 |
| 20260509024005 | 21 | 144 | 6.4 | 14.5 | 0.00 | 0.38 | 0.38 | 82 | 1009.0 |
| 20260509023505 | 21 | 140 | 4.8 | 14.5 | 0.00 | 0.38 | 0.38 | 82 | 1008.9 |
| 20260509023007 | 21 | 124 | 6.4 | 11.3 | 0.00 | 0.38 | 0.38 | 82 | 1008.9 |
| 20260509022507 | 21 | 145 | 4.8 | 11.3 | 0.00 | 0.38 | 0.38 | 81 | 1008.8 |
| 20260509022007 | 21 | 153 | 3.2 | 11.3 | 0.00 | 0.38 | 0.38 | 81 | 1008.6 |
| 20260509021518 | 21 | 161 | 3.2 | 14.5 | 0.00 | 0.38 | 0.38 | 81 | 1008.6 |
| 20260509021006 | 21 | 121 | 6.4 | 14.5 | 0.00 | 0.38 | 0.38 | 81 | 1008.5 |
| 20260509020507 | 22 | 169 | 3.2 | 12.9 | 0.00 | 0.38 | 0.38 | 80 | 1008.5 |
| 20260509020024 | 21 | 121 | 6.4 | 12.9 | 0.00 | 0.38 | 0.38 | 80 | 1008.5 |
| 20260509015503 | 21 | 140 | 6.4 | 16.1 | 0.00 | 0.38 | 0.38 | 80 | 1008.3 |
| 20260509015015 | 21 | 151 | 8.0 | 16.1 | 0.00 | 0.38 | 0.38 | 80 | 1008.3 |
| 20260509014521 | 21 | 155 | 6.4 | 14.5 | 0.00 | 0.38 | 0.38 | 80 | 1008.5 |
| 20260509014008 | 21 | 178 | 6.4 | 12.9 | 0.00 | 0.38 | 0.38 | 80 | 1008.7 |
| 20260509013504 | 22 | 175 | 6.4 | 14.5 | 0.00 | 0.38 | 0.38 | 79 | 1008.7 |
| 20260509013008 | 22 | 148 | 4.8 | 14.5 | 0.00 | 0.38 | 0.38 | 78 | 1008.8 |
| 20260509012504 | 22 | 147 | 6.4 | 11.3 | 0.00 | 0.38 | 0.38 | 78 | 1008.8 |
| 20260509012004 | 22 | 181 | 6.4 | 11.3 | 0.00 | 0.38 | 0.38 | 77 | 1008.9 |
| 20260509011515 | 22 | 150 | 3.2 | 11.3 | 0.00 | 0.38 | 0.38 | 78 | 1008.9 |
| 20260509011008 | 22 | 135 | 3.2 | 9.7 | 0.00 | 0.38 | 0.38 | 77 | 1008.9 |
| 20260509010509 | 22 | 182 | 4.8 | 9.7 | 0.00 | 0.38 | 0.38 | 77 | 1008.9 |
| 20260509010014 | 22 | 184 | 3.2 | 9.7 | 0.00 | 0.38 | 0.38 | 78 | 1008.8 |
| 20260509005508 | 22 | 186 | 4.8 | 14.5 | 0.00 | 0.38 | 0.38 | 78 | 1008.7 |
| 20260509005010 | 22 | 194 | 8.0 | 14.5 | 0.00 | 0.38 | 0.38 | 77 | 1008.7 |
| 20260509004510 | 22 | 168 | 4.8 | 14.5 | 0.00 | 0.38 | 0.38 | 77 | 1008.6 |
| 20260509004010 | 22 | 157 | 8.0 | 16.1 | 0.00 | 0.38 | 0.38 | 77 | 1008.6 |
| 20260509003512 | 22 | 165 | 8.0 | 16.1 | 0.00 | 0.38 | 0.38 | 76 | 1008.5 |
| 20260509003026 | 22 | 183 | 9.7 | 16.1 | 0.00 | 0.38 | 0.38 | 76 | 1008.4 |
| 20260509002506 | 22 | 176 | 8.0 | 17.7 | 0.00 | 0.38 | 0.38 | 76 | 1008.4 |
| 20260509002007 | 22 | 178 | 8.0 | 17.7 | 0.00 | 0.38 | 0.38 | 76 | 1008.3 |
| 20260509001512 | 22 | 144 | 9.7 | 14.5 | 0.00 | 0.38 | 0.38 | 76 | 1008.3 |
| 20260509001008 | 22 | 198 | 4.8 | 19.3 | 0.00 | 0.38 | 0.38 | 76 | 1008.3 |
| 20260509000507 | 22 | 184 | 8.0 | 19.3 | 0.00 | 0.38 | 0.38 | 75 | 1008.3 |
| 20260509000035 | 22 | 184 | 9.7 | 17.7 | 0.00 | 0.38 | 0.38 | 75 | 1008.3 |
| 20260508235506 | 22 | 169 | 8.0 | 16.1 | 0.00 | 0.38 | 0.38 | 75 | 1008.4 |
| 20260508235007 | 22 | 184 | 6.4 | 17.7 | 0.00 | 0.38 | 0.38 | 74 | 1008.5 |
| 20260508234519 | 22 | 171 | 9.7 | 19.3 | 0.00 | 0.38 | 0.38 | 75 | 1008.6 |
| 20260508234009 | 22 | 194 | 9.7 | 19.3 | 0.00 | 0.38 | 0.38 | 74 | 1008.6 |
| 20260508233512 | 23 | 200 | 9.7 | 16.1 | 0.00 | 0.38 | 0.38 | 74 | 1008.7 |
| 20260508233014 | 22 | 159 | 8.0 | 17.7 | 0.00 | 0.38 | 0.38 | 74 | 1008.7 |
| 20260508232508 | 23 | 197 | 8.0 | 14.5 | 0.00 | 0.38 | 0.38 | 74 | 1008.8 |
| 20260508232014 | 22 | 168 | 6.4 | 16.1 | 0.00 | 0.38 | 0.38 | 73 | 1008.8 |
| 20260508231513 | 22 | 142 | 8.0 | 16.1 | 0.00 | 0.38 | 0.38 | 73 | 1008.8 |
| 20260508231007 | 23 | 159 | 6.4 | 14.5 | 0.00 | 0.38 | 0.38 | 73 | 1008.7 |
| 20260508230507 | 23 | 130 | 9.7 | 17.7 | 0.00 | 0.38 | 0.38 | 71 | 1008.7 |
| 20260508230015 | 23 | 178 | 8.0 | 17.7 | 0.00 | 0.38 | 0.38 | 72 | 1008.7 |
| 20260508225505 | 23 | 139 | 8.0 | 20.9 | 0.00 | 0.38 | 0.38 | 71 | 1008.8 |
| 20260508225010 | 23 | 146 | 6.4 | 20.9 | 0.00 | 0.38 | 0.38 | 71 | 1008.9 |
| 20260508224539 | 23 | 186 | 9.7 | 19.3 | 0.00 | 0.38 | 0.38 | 71 | 1008.9 |
| 20260508224006 | 23 | 123 | 4.8 | 16.1 | 0.00 | 0.38 | 0.38 | 71 | 1008.8 |
| 20260508223509 | 23 | 156 | 6.4 | 17.7 | 0.00 | 0.38 | 0.38 | 71 | 1008.9 |
| 20260508223023 | 23 | 148 | 8.0 | 19.3 | 0.00 | 0.38 | 0.38 | 71 | 1008.9 |
| 20260508222508 | 23 | 163 | 11.3 | 19.3 | 0.00 | 0.38 | 0.38 | 69 | 1008.9 |
| 20260508222007 | 24 | 192 | 8.0 | 17.7 | 0.00 | 0.38 | 0.38 | 69 | 1009.0 |
| 20260508221523 | 23 | 163 | 8.0 | 19.3 | 0.00 | 0.38 | 0.38 | 68 | 1009.0 |
| 20260508221011 | 23 | 172 | 9.7 | 20.9 | 0.00 | 0.38 | 0.38 | 67 | 1009.0 |
| 20260508220510 | 24 | 139 | 12.9 | 20.9 | 0.00 | 0.38 | 0.38 | 68 | 1009.0 |
| 20260508220016 | 24 | 159 | 9.7 | 20.9 | 0.00 | 0.38 | 0.38 | 67 | 1008.9 |
| 20260508215507 | 24 | 182 | 11.3 | 20.9 | 0.00 | 0.38 | 0.38 | 66 | 1008.9 |
| 20260508215011 | 24 | 142 | 9.7 | 22.5 | 0.00 | 0.38 | 0.38 | 66 | 1009.0 |
| 20260508214517 | 23 | 168 | 11.3 | 22.5 | 0.00 | 0.38 | 0.38 | 65 | 1009.0 |
| 20260508214007 | 24 | 152 | 9.7 | 19.3 | 0.00 | 0.38 | 0.38 | 67 | 1009.1 |
| 20260508213510 | 24 | 145 | 11.3 | 20.9 | 0.00 | 0.38 | 0.38 | 66 | 1009.2 |
| 20260508213031 | 23 | 183 | 11.3 | 20.9 | 0.00 | 0.38 | 0.38 | 67 | 1009.1 |
| 20260508212508 | 23 | 179 | 11.3 | 19.3 | 0.00 | 0.38 | 0.38 | 65 | 1009.2 |
| 20260508212009 | 24 | 127 | 9.7 | 17.7 | 0.00 | 0.38 | 0.38 | 64 | 1009.3 |
| 20260508211530 | 24 | 168 | 6.4 | 16.1 | 0.00 | 0.38 | 0.38 | 65 | 1009.4 |
| 20260508211008 | 24 | 173 | 9.7 | 17.7 | 0.00 | 0.38 | 0.38 | 67 | 1009.4 |
| 20260508210509 | 24 | 165 | 9.7 | 17.7 | 0.00 | 0.38 | 0.38 | 64 | 1009.4 |
| 20260508210025 | 24 | 136 | 9.7 | 17.7 | 0.00 | 0.38 | 0.38 | 64 | 1009.5 |
| 20260508205510 | 23 | 103 | 8.0 | 22.5 | 0.00 | 0.38 | 0.38 | 65 | 1009.7 |
| 20260508205009 | 23 | 154 | 9.7 | 22.5 | 0.00 | 0.38 | 0.38 | 67 | 1009.8 |
| 20260508204520 | 23 | 140 | 6.4 | 14.5 | 0.00 | 0.38 | 0.38 | 67 | 1009.8 |
| 20260508204010 | 23 | 172 | 6.4 | 17.7 | 0.00 | 0.38 | 0.38 | 66 | 1009.7 |
| 20260508203512 | 23 | 127 | 6.4 | 17.7 | 0.00 | 0.38 | 0.38 | 63 | 1009.6 |
| 20260508203022 | 23 | 121 | 6.4 | 17.7 | 0.00 | 0.38 | 0.38 | 66 | 1009.8 |
| 20260508202507 | 23 | 133 | 8.0 | 19.3 | 0.00 | 0.38 | 0.38 | 66 | 1010.3 |
| 20260508202012 | 23 | 118 | 9.7 | 19.3 | 0.00 | 0.38 | 0.38 | 67 | 1010.6 |